Regional Weather Roundup
Issued by NWS Albany, NY

Home | Current Version | Previous Version | Text Only | Print | Product List | Glossary On
Versions: 1 2 3 4 5 6 7 8 9 10 11 12 13 14 15 16 17 18 19 20 21 22 23 24 25 26 27
000
ASUS41 KALY 231510
RWRALY

NEW YORK STATE HOURLY WEATHER ROUNDUP
NATIONAL WEATHER SERVICE ALBANY NY
1000 AM EST THU FEB 23 2017

NOTE: "FAIR" INDICATES FEW OR NO CLOUDS BELOW 12,000 FEET WITH NO
SIGNIFICANT WEATHER AND/OR NO OBSTRUCTIONS TO VISIBILITY.

NYZ032-033-038>043-046>054-057>066-NYZ062>081-082-084-231600-
EAST


CITY           SKY/WX    TMP DP  RH WIND       PRES   REMARKS
ALBANY         MOSUNNY   52  39  61 S12       29.81F
GLENS FALLS    SUNNY     51  39  63 S12       29.78F
POUGHKEEPSIE   SUNNY     54  41  61 SW5       29.85F
NEWBURGH       SUNNY     54  45  71 CALM      29.87F
MONTGOMERY     SUNNY     53  44  71 S8        29.84F
WHITE PLAINS   PTSUNNY   50  43  77 S3        29.88F HAZE
ISLIP          CLOUDY    47  47 100 SW6       29.91F FOG
NEW YORK CITY  CLOUDY    52  47  83 SW6       29.90F FOG
CENTRAL PARK   CLOUDY    52  47  83 W5        29.92F
$$

NYZ005>009-017-018-044>046-055-056-231600-
CENTRAL


CITY           SKY/WX    TMP DP  RH WIND       PRES   REMARKS
FULTON         CLOUDY    58  47  66 S12G20    29.70F
SYRACUSE       PTSUNNY   59  46  62 SW13      29.71S
ROME           MOSUNNY   55  43  63 E6        29.76S
ELMIRA         CLOUDY    53  46  77 CALM      29.78F
BINGHAMTON     PTSUNNY   53  44  71 SW10      29.79F
MONTICELLO     MOSUNNY   50  43  76 CALM      29.86F
$$

NYZ026>034-041>043-087-231600-
NORTH


CITY           SKY/WX    TMP DP  RH WIND       PRES   REMARKS
WATERTOWN      CLOUDY    56  48  74 S13G23    29.64F
FORT DRUM      NOT AVBL
OGDENSBURG     FAIR      60  46  61 SW17G24   29.60F
MASSENA        SUNNY     60  47  61 SW17      29.60F
SARANAC LAKE   SUNNY     48  41  76 SW14G23   29.67F
PLATTSBURGH    CLOUDY    45  37  73 CALM      29.69F
$$

NYZ001>004-010>016-019>021-085-231600-
WEST


CITY           SKY/WX    TMP DP  RH WIND       PRES   REMARKS
NIAGARA FALLS  CLOUDY    59  51  75 SW21G28   29.64F
BUFFALO        CLOUDY    60  52  74 SW20G28   29.67S
DUNKIRK        CLOUDY    61  53  75 SW14      29.70F
JAMESTOWN        N/A     55  50  82 SW15      29.75S
WELLSVILLE     CLOUDY    55  51  86 SW13G20   29.79R FOG
ROCHESTER      PTSUNNY   61  51  70 SW15G24   29.67F
PENN YAN       PTSUNNY   57  46  66 S17       29.74F
$$

             KEY
       WCI = WIND CHILL INDEX
       VSB = VISIBILITY
       HX  = HEAT INDEX
$$




USA.gov is the U.S. government's official web portal to all federal, state and local government web resources and services.